Time,TemperatureF,DewpointF,PressureIn,WindDirection,WindDirectionDegrees,WindSpeedMPH,WindSpeedGustMPH,Humidity,HourlyPrecipIn,Conditions,Clouds,dailyrainin,SoftwareType,DateUTC
2013-01-16 00:02:00,34.0,25.0,30.21,North,0,0.0,0.0,69,0.00,,,0.07,,2013-01-16 06:02:00,
2013-01-16 00:12:00,34.0,25.0,30.21,North,0,0.0,0.0,69,0.00,,,0.07,,2013-01-16 06:12:00,
2013-01-16 00:22:00,34.0,25.0,30.21,North,0,0.0,0.0,69,0.00,,,0.07,,2013-01-16 06:22:00,
2013-01-16 00:32:00,33.0,24.0,30.20,North,0,0.0,0.0,70,0.00,,,0.07,,2013-01-16 06:32:00,
2013-01-16 00:43:00,33.0,24.0,30.20,North,0,0.0,0.0,70,0.00,,,0.07,,2013-01-16 06:43:00,
2013-01-16 00:53:00,33.0,25.0,30.20,North,0,0.0,0.0,71,0.00,,,0.07,,2013-01-16 06:53:00,
2013-01-16 01:02:00,32.0,24.0,30.20,North,0,0.0,0.0,72,0.00,,,0.07,,2013-01-16 07:02:00,
2013-01-16 01:12:00,32.0,24.0,30.20,North,0,0.0,0.0,72,0.00,,,0.07,,2013-01-16 07:12:00,
2013-01-16 01:22:00,32.0,24.0,30.20,North,0,0.0,0.0,72,0.00,,,0.07,,2013-01-16 07:22:00,
2013-01-16 01:32:00,32.0,24.0,30.22,North,0,0.0,0.0,72,0.00,,,0.07,,2013-01-16 07:32:00,
2013-01-16 01:42:00,32.0,24.0,30.22,North,0,0.0,0.0,72,0.00,,,0.07,,2013-01-16 07:42:00,
2013-01-16 01:52:00,32.0,24.0,30.22,North,0,0.0,0.0,72,0.00,,,0.07,,2013-01-16 07:52:00,
2013-01-16 02:02:00,32.0,25.0,30.23,North,0,0.0,0.0,74,0.00,,,0.07,,2013-01-16 08:02:00,
2013-01-16 02:12:00,32.0,25.0,30.23,North,0,0.0,0.0,74,0.00,,,0.07,,2013-01-16 08:12:00,
2013-01-16 02:22:00,32.0,25.0,30.23,North,0,0.0,0.0,74,0.00,,,0.07,,2013-01-16 08:22:00,
2013-01-16 02:32:00,32.0,24.0,30.23,North,0,0.0,0.0,73,0.00,,,0.07,,2013-01-16 08:32:00,
2013-01-16 02:42:00,32.0,24.0,30.23,North,0,0.0,0.0,73,0.00,,,0.07,,2013-01-16 08:42:00,
2013-01-16 02:53:00,32.0,24.0,30.23,North,0,0.0,0.0,73,0.00,,,0.07,,2013-01-16 08:53:00,
2013-01-16 03:02:00,32.0,24.0,30.22,North,0,0.0,0.0,71,0.00,,,0.07,,2013-01-16 09:02:00,
2013-01-16 03:12:00,32.0,24.0,30.22,North,0,0.0,0.0,71,0.00,,,0.07,,2013-01-16 09:12:00,
2013-01-16 03:22:00,32.0,24.0,30.22,North,0,0.0,0.0,72,0.00,,,0.07,,2013-01-16 09:22:00,
2013-01-16 03:32:00,32.0,24.0,30.22,North,0,0.0,0.0,72,0.00,,,0.07,,2013-01-16 09:32:00,
2013-01-16 03:42:00,32.0,24.0,30.22,North,0,0.0,0.0,72,0.00,,,0.07,,2013-01-16 09:42:00,
2013-01-16 03:52:00,31.0,23.0,30.22,North,0,0.0,0.0,73,0.00,,,0.07,,2013-01-16 09:52:00,
2013-01-16 04:02:00,32.0,24.0,30.22,North,0,0.0,0.0,72,0.00,,,0.07,,2013-01-16 10:02:00,
2013-01-16 04:12:00,32.0,24.0,30.22,North,0,0.0,0.0,72,0.00,,,0.07,,2013-01-16 10:12:00,
2013-01-16 04:22:00,32.0,24.0,30.22,North,0,0.0,0.0,72,0.00,,,0.07,,2013-01-16 10:22:00,
2013-01-16 04:32:00,32.0,24.0,30.22,North,0,0.0,0.0,72,0.00,,,0.07,,2013-01-16 10:32:00,
2013-01-16 04:42:00,32.0,24.0,30.22,North,0,0.0,0.0,72,0.00,,,0.07,,2013-01-16 10:42:00,
2013-01-16 04:53:00,32.0,24.0,30.23,North,0,0.0,0.0,71,0.00,,,0.07,,2013-01-16 10:53:00,
2013-01-16 05:02:00,32.0,24.0,30.23,North,0,0.0,0.0,71,0.00,,,0.07,,2013-01-16 11:02:00,
2013-01-16 05:12:00,32.0,24.0,30.23,North,0,0.0,0.0,71,0.00,,,0.07,,2013-01-16 11:12:00,
2013-01-16 05:22:00,31.0,23.0,30.24,North,0,0.0,0.0,71,0.00,,,0.07,,2013-01-16 11:22:00,
2013-01-16 05:33:00,31.0,23.0,30.24,North,0,0.0,0.0,71,0.00,,,0.07,,2013-01-16 11:33:00,
2013-01-16 05:42:00,31.0,23.0,30.24,North,0,0.0,0.0,71,0.00,,,0.07,,2013-01-16 11:42:00,
2013-01-16 05:52:00,31.0,23.0,30.24,North,0,0.0,0.0,71,0.00,,,0.07,,2013-01-16 11:52:00,
2013-01-16 06:03:00,30.0,22.0,30.23,North,0,0.0,0.0,71,0.00,,,0.07,,2013-01-16 12:03:00,
2013-01-16 06:12:00,30.0,22.0,30.23,North,0,0.0,0.0,71,0.00,,,0.07,,2013-01-16 12:12:00,
2013-01-16 06:22:00,30.0,22.0,30.24,North,0,0.0,0.0,71,0.00,,,0.07,,2013-01-16 12:22:00,
2013-01-16 06:33:00,30.0,22.0,30.24,North,0,0.0,0.0,73,0.00,,,0.07,,2013-01-16 12:33:00,
2013-01-16 06:43:00,30.0,22.0,30.24,North,0,0.0,0.0,73,0.00,,,0.07,,2013-01-16 12:43:00,
2013-01-16 06:53:00,30.0,22.0,30.24,North,0,0.0,0.0,73,0.00,,,0.07,,2013-01-16 12:53:00,
2013-01-16 07:03:00,30.0,22.0,30.24,North,0,0.0,0.0,73,0.00,,,0.07,,2013-01-16 13:03:00,
2013-01-16 07:12:00,30.0,22.0,30.24,North,0,0.0,0.0,73,0.00,,,0.07,,2013-01-16 13:12:00,
2013-01-16 07:22:00,30.0,23.0,30.25,North,0,0.0,0.0,74,0.00,,,0.07,,2013-01-16 13:22:00,
2013-01-16 07:33:00,30.0,23.0,30.25,North,0,0.0,0.0,74,0.00,,,0.07,,2013-01-16 13:33:00,
2013-01-16 07:43:00,30.0,23.0,30.25,North,0,0.0,0.0,74,0.00,,,0.07,,2013-01-16 13:43:00,
2013-01-16 07:52:00,29.0,22.0,30.25,North,0,0.0,0.0,74,0.00,,,0.07,,2013-01-16 13:52:00,
2013-01-16 08:03:00,30.0,22.0,30.26,North,0,0.0,0.0,73,0.00,,,0.07,,2013-01-16 14:03:00,
2013-01-16 08:12:00,30.0,22.0,30.26,North,0,0.0,0.0,73,0.00,,,0.07,,2013-01-16 14:12:00,
2013-01-16 08:22:00,30.0,22.0,30.26,North,0,0.0,0.0,73,0.00,,,0.07,,2013-01-16 14:22:00,
2013-01-16 08:33:00,30.0,22.0,30.27,WNW,293,3.0,5.0,73,0.00,,,0.07,,2013-01-16 14:33:00,
2013-01-16 08:42:00,30.0,22.0,30.27,WNW,293,3.0,5.0,73,0.00,,,0.07,,2013-01-16 14:42:00,
2013-01-16 08:53:00,32.0,24.0,30.27,NW,304,6.0,10.0,71,0.00,,,0.07,,2013-01-16 14:53:00,
2013-01-16 09:03:00,32.0,23.0,30.28,NW,308,6.0,9.0,70,0.00,,,0.07,,2013-01-16 15:03:00,
2013-01-16 09:12:00,32.0,23.0,30.28,NW,308,6.0,9.0,70,0.00,,,0.07,,2013-01-16 15:12:00,
2013-01-16 09:22:00,34.0,24.0,30.29,WNW,300,5.0,10.0,66,0.00,,,0.07,,2013-01-16 15:22:00,
2013-01-16 09:33:00,34.0,24.0,30.29,WNW,300,5.0,10.0,66,0.00,,,0.07,,2013-01-16 15:33:00,
2013-01-16 09:43:00,34.0,24.0,30.29,WNW,300,5.0,10.0,66,0.00,,,0.07,,2013-01-16 15:43:00,
2013-01-16 09:52:00,35.0,23.0,30.29,WNW,300,5.0,10.0,60,0.00,,,0.07,,2013-01-16 15:52:00,
2013-01-16 10:03:00,36.0,22.0,30.30,NW,318,6.0,10.0,56,0.00,,,0.07,,2013-01-16 16:03:00,
2013-01-16 10:12:00,36.0,22.0,30.30,NW,318,6.0,10.0,56,0.00,,,0.07,,2013-01-16 16:12:00,
2013-01-16 10:22:00,36.0,22.0,30.30,NW,318,6.0,10.0,56,0.00,,,0.07,,2013-01-16 16:22:00,
2013-01-16 10:33:00,37.0,20.0,30.28,NW,304,6.0,13.0,50,0.00,,,0.07,,2013-01-16 16:33:00,
2013-01-16 10:42:00,37.0,20.0,30.28,NW,304,6.0,13.0,50,0.00,,,0.07,,2013-01-16 16:42:00,
2013-01-16 10:53:00,38.0,21.0,30.27,North,350,6.0,10.0,49,0.00,,,0.07,,2013-01-16 16:53:00,
2013-01-16 11:03:00,38.0,20.0,30.27,NNW,329,6.0,10.0,47,0.00,,,0.07,,2013-01-16 17:03:00,
2013-01-16 11:12:00,38.0,20.0,30.27,NNW,329,6.0,10.0,47,0.00,,,0.07,,2013-01-16 17:12:00,
2013-01-16 11:22:00,40.0,21.0,30.25,NW,323,6.0,9.0,46,0.01,,,0.08,,2013-01-16 17:22:00,
2013-01-16 11:33:00,40.0,21.0,30.25,NW,323,6.0,9.0,46,0.01,,,0.08,,2013-01-16 17:33:00,
2013-01-16 11:43:00,40.0,21.0,30.25,NW,323,6.0,9.0,46,0.01,,,0.08,,2013-01-16 17:43:00,
2013-01-16 11:53:00,40.0,20.0,30.24,WNW,297,6.0,12.0,45,0.01,,,0.08,,2013-01-16 17:53:00,
2013-01-16 12:03:00,41.0,21.0,30.23,WNW,296,6.0,9.0,44,0.00,,,0.08,,2013-01-16 18:03:00,
2013-01-16 12:13:00,41.0,21.0,30.23,WNW,296,6.0,9.0,44,0.00,,,0.08,,2013-01-16 18:13:00,
2013-01-16 12:23:00,41.0,19.0,30.23,WNW,296,3.0,10.0,41,0.00,,,0.08,,2013-01-16 18:23:00,
2013-01-16 12:33:00,42.0,22.0,30.22,NW,320,3.0,12.0,44,0.00,,,0.08,,2013-01-16 18:33:00,
2013-01-16 12:42:00,42.0,22.0,30.22,NW,320,3.0,12.0,44,0.00,,,0.08,,2013-01-16 18:42:00,
2013-01-16 12:53:00,43.0,21.0,30.21,NW,322,6.0,10.0,41,0.00,,,0.08,,2013-01-16 18:53:00,
2013-01-16 13:03:00,43.0,21.0,30.21,NW,314,3.0,9.0,41,0.00,,,0.08,,2013-01-16 19:03:00,
2013-01-16 13:12:00,43.0,21.0,30.21,NW,314,3.0,9.0,41,0.00,,,0.08,,2013-01-16 19:12:00,
2013-01-16 13:23:00,43.0,21.0,30.21,NW,314,3.0,9.0,41,0.00,,,0.08,,2013-01-16 19:23:00,
2013-01-16 13:33:00,43.0,21.0,30.19,North,5,3.0,7.0,41,0.00,,,0.08,,2013-01-16 19:33:00,
2013-01-16 13:43:00,43.0,21.0,30.19,North,5,3.0,7.0,41,0.00,,,0.08,,2013-01-16 19:43:00,
2013-01-16 13:53:00,44.0,20.0,30.19,WNW,302,5.0,8.0,38,0.00,,,0.08,,2013-01-16 19:53:00,
2013-01-16 14:03:00,45.0,23.0,30.18,North,2,3.0,9.0,41,0.00,,,0.07,,2013-01-16 20:03:00,
2013-01-16 14:12:00,45.0,23.0,30.18,North,2,3.0,9.0,41,0.00,,,0.07,,2013-01-16 20:12:00,
2013-01-16 14:23:00,45.0,22.0,30.18,NW,307,8.0,10.0,39,0.00,,,0.07,,2013-01-16 20:23:00,
2013-01-16 14:33:00,45.0,22.0,30.17,NW,309,7.0,12.0,39,0.00,,,0.06,,2013-01-16 20:33:00,
2013-01-16 14:42:00,45.0,22.0,30.17,NW,309,7.0,12.0,39,0.00,,,0.06,,2013-01-16 20:42:00,
2013-01-16 14:53:00,45.0,22.0,30.17,NW,309,7.0,12.0,39,0.00,,,0.06,,2013-01-16 20:53:00,
2013-01-16 15:03:00,45.0,22.0,30.17,NNW,340,7.0,10.0,40,0.00,,,0.06,,2013-01-16 21:03:00,
2013-01-16 15:12:00,45.0,22.0,30.17,NNW,340,7.0,10.0,40,0.00,,,0.06,,2013-01-16 21:12:00,
2013-01-16 15:22:00,46.0,22.0,30.17,WNW,289,6.0,12.0,38,0.00,,,0.05,,2013-01-16 21:22:00,
2013-01-16 15:33:00,46.0,23.0,30.16,NW,304,6.0,9.0,40,0.00,,,0.05,,2013-01-16 21:33:00,
2013-01-16 15:43:00,46.0,23.0,30.16,NW,304,6.0,9.0,40,0.00,,,0.05,,2013-01-16 21:43:00,
2013-01-16 15:52:00,46.0,22.0,30.16,WSW,256,6.0,12.0,39,0.00,,,0.04,,2013-01-16 21:52:00,
2013-01-16 16:02:00,46.0,24.0,30.16,West,281,5.0,12.0,41,0.00,,,0.04,,2013-01-16 22:02:00,
2013-01-16 16:12:00,46.0,24.0,30.16,West,281,5.0,12.0,41,0.00,,,0.04,,2013-01-16 22:12:00,
2013-01-16 16:22:00,46.0,22.0,30.17,West,266,6.0,9.0,39,0.00,,,0.04,,2013-01-16 22:22:00,
2013-01-16 16:33:00,46.0,23.0,30.17,NNW,333,5.0,8.0,40,0.00,,,0.04,,2013-01-16 22:33:00,
2013-01-16 16:43:00,46.0,23.0,30.17,NNW,333,5.0,8.0,40,0.00,,,0.04,,2013-01-16 22:43:00,
2013-01-16 16:52:00,46.0,23.0,30.17,NNW,333,5.0,8.0,40,0.00,,,0.04,,2013-01-16 22:52:00,
2013-01-16 17:03:00,46.0,23.0,30.18,WNW,287,4.0,8.0,40,0.00,,,0.03,,2013-01-16 23:03:00,
2013-01-16 17:12:00,45.0,23.0,30.18,WNW,288,5.0,9.0,42,0.00,,,0.03,,2013-01-16 23:12:00,
2013-01-16 17:23:00,45.0,23.0,30.18,WNW,288,5.0,9.0,42,0.00,,,0.03,,2013-01-16 23:23:00,
2013-01-16 17:32:00,45.0,23.0,30.18,WNW,300,3.0,7.0,42,0.00,,,0.03,,2013-01-16 23:32:00,
2013-01-16 17:42:00,45.0,23.0,30.18,WNW,300,3.0,7.0,42,0.00,,,0.03,,2013-01-16 23:42:00,
2013-01-16 17:52:00,44.0,24.0,30.18,WNW,297,2.0,5.0,45,0.00,,,0.02,,2013-01-16 23:52:00,
2013-01-16 18:02:00,44.0,25.0,30.19,WNW,295,1.0,3.0,47,0.00,,,0.02,,2013-01-17 00:02:00,
2013-01-16 18:12:00,44.0,25.0,30.19,WNW,295,1.0,3.0,47,0.00,,,0.02,,2013-01-17 00:12:00,
2013-01-16 18:22:00,43.0,24.0,30.19,WNW,295,1.0,1.0,47,0.00,,,0.02,,2013-01-17 00:22:00,
2013-01-16 18:32:00,39.0,26.0,30.19,WNW,295,0.0,0.0,60,0.00,,,0.02,,2013-01-17 00:32:00,
2013-01-16 18:42:00,39.0,26.0,30.19,WNW,295,0.0,0.0,60,0.00,,,0.02,,2013-01-17 00:42:00,
2013-01-16 18:52:00,39.0,26.0,30.19,WNW,295,0.0,0.0,60,0.00,,,0.02,,2013-01-17 00:52:00,
2013-01-16 19:02:00,39.0,25.0,30.19,WNW,295,0.0,0.0,57,0.00,,,0.02,,2013-01-17 01:02:00,
2013-01-16 19:12:00,39.0,25.0,30.19,WNW,295,0.0,0.0,57,0.00,,,0.02,,2013-01-17 01:12:00,
2013-01-16 19:22:00,37.0,26.0,30.20,WNW,295,0.0,0.0,64,0.00,,,0.02,,2013-01-17 01:22:00,
2013-01-16 19:33:00,39.0,24.0,30.20,WNW,295,0.0,0.0,55,0.00,,,0.02,,2013-01-17 01:33:00,
2013-01-16 19:42:00,39.0,24.0,30.20,WNW,295,0.0,0.0,55,0.00,,,0.02,,2013-01-17 01:42:00,
2013-01-16 19:52:00,37.0,25.0,30.21,WNW,295,0.0,0.0,61,0.00,,,0.02,,2013-01-17 01:52:00,
2013-01-16 20:02:00,36.0,29.0,30.21,WNW,295,0.0,1.0,75,0.00,,,0.02,,2013-01-17 02:02:00,
2013-01-16 20:12:00,36.0,29.0,30.21,WNW,295,0.0,1.0,75,0.00,,,0.02,,2013-01-17 02:12:00,
2013-01-16 20:22:00,36.0,29.0,30.21,WNW,295,0.0,1.0,75,0.00,,,0.02,,2013-01-17 02:22:00,
2013-01-16 20:32:00,34.0,25.0,30.22,WNW,295,0.0,1.0,70,0.00,,,0.02,,2013-01-17 02:32:00,
2013-01-16 20:42:00,34.0,25.0,30.22,WNW,295,0.0,1.0,70,0.00,,,0.02,,2013-01-17 02:42:00,
2013-01-16 20:52:00,34.0,25.0,30.22,WNW,295,0.0,1.0,70,0.00,,,0.02,,2013-01-17 02:52:00,
2013-01-16 21:03:00,34.0,26.0,30.22,WNW,295,0.0,0.0,73,0.00,,,0.01,,2013-01-17 03:03:00,
2013-01-16 21:12:00,34.0,26.0,30.22,WNW,295,0.0,0.0,73,0.00,,,0.01,,2013-01-17 03:12:00,
2013-01-16 21:22:00,35.0,25.0,30.22,WNW,295,0.0,0.0,66,0.00,,,0.01,,2013-01-17 03:22:00,
2013-01-16 21:32:00,34.0,24.0,30.22,WNW,295,0.0,1.0,67,0.00,,,0.01,,2013-01-17 03:32:00,
2013-01-16 21:42:00,34.0,24.0,30.22,WNW,295,0.0,1.0,67,0.00,,,0.01,,2013-01-17 03:42:00,
2013-01-16 21:52:00,37.0,24.0,30.23,WNW,295,0.0,0.0,60,0.00,,,0.01,,2013-01-17 03:52:00,
2013-01-16 22:02:00,36.0,24.0,30.22,North,1,0.0,0.0,61,0.00,,,0.01,,2013-01-17 04:02:00,
2013-01-16 22:12:00,34.0,24.0,30.23,North,0,0.0,0.0,67,0.00,,,0.01,,2013-01-17 04:12:00,
2013-01-16 22:22:00,34.0,24.0,30.23,North,0,0.0,0.0,67,0.00,,,0.01,,2013-01-17 04:22:00,
2013-01-16 22:32:00,35.0,24.0,30.23,North,0,0.0,0.0,64,0.00,,,0.01,,2013-01-17 04:32:00,
2013-01-16 22:42:00,35.0,24.0,30.23,North,0,0.0,0.0,64,0.00,,,0.01,,2013-01-17 04:42:00,
2013-01-16 22:52:00,36.0,25.0,30.22,North,0,0.0,0.0,63,0.00,,,0.01,,2013-01-17 04:52:00,
2013-01-16 23:04:00,32.0,25.0,30.23,North,0,0.0,0.0,75,0.00,,,0.01,,2013-01-17 05:04:00,
2013-01-16 23:12:00,32.0,25.0,30.23,North,0,0.0,0.0,75,0.00,,,0.01,,2013-01-17 05:12:00,
2013-01-16 23:22:00,31.0,27.0,30.23,North,0,0.0,0.0,86,0.00,,,0.01,,2013-01-17 05:22:00,
2013-01-16 23:33:00,34.0,25.0,30.23,North,0,0.0,0.0,68,0.00,,,0.01,,2013-01-17 05:33:00,
2013-01-16 23:42:00,34.0,25.0,30.23,North,0,0.0,0.0,68,0.00,,,0.01,,2013-01-17 05:42:00,
2013-01-16 23:52:00,36.0,25.0,30.23,North,0,0.0,0.0,63,0.00,,,0.01,,2013-01-17 05:52:00,